EW0811 Weather Reports


time (UTC)temp
C
wind
direction
speed
KPH
gust
KPH
rain 1hr
cm
rain 24hr
cm
rain mn
cm
humidity
%
barometer
mb
20260504030117 12 225 20.9 37.0 0.00 0.05 0.05 56 1008.4
20260504025116 12 248 12.9 20.9 0.00 0.05 0.05 57 1008.2
20260504024117 12 225 9.7 20.9 0.00 0.05 0.05 58 1008.3
20260504023118 12 248 9.7 17.7 0.00 0.05 0.05 58 1008.4
20260504022118 12 225 8.0 14.5 0.00 0.05 0.05 58 1008.5
20260504021116 11 248 12.9 24.1 0.00 0.05 0.05 59 1008.5
20260504020117 12 248 11.3 20.9 0.00 0.05 0.05 60 1008.5
20260504015116 11 225 11.3 24.1 0.00 0.05 0.05 60 1008.5
20260504014116 11 225 9.7 14.5 0.00 0.05 0.05 60 1008.5
20260504013157 11 225 11.3 16.1 0.00 0.05 0.05 61 1008.5
20260504012116 11 225 9.7 19.3 0.00 0.05 0.05 63 1008.6
20260504011116 11 270 6.4 9.7 0.00 0.05 0.05 67 1008.5
20260504010116 11 225 6.4 11.3 0.00 0.05 0.05 70 1008.5
20260504005116 10 225 6.4 11.3 0.00 0.05 0.05 74 1008.4
20260504004116 9 225 6.4 11.3 0.00 0.05 0.05 84 1008.5
20260504003116 8 225 3.2 4.8 0.00 0.05 0.05 89 1008.5
20260504002237 8 0.0 0.0 0.00 0.05 0.05 91 1008.7
20260504001118 9 0.0 1.6 0.00 0.05 0.05 91 1008.8
20260504000116 9 0.0 1.6 0.03 0.05 0.05 91 1008.7
20260503235118 9 248 1.6 3.2 0.03 0.05 0.05 91 1008.9
20260503234116 9 0.0 1.6 0.03 0.05 0.05 91 1009.0
20260503233118 9 248 3.2 4.8 0.05 0.05 0.05 91 1009.2
20260503232116 9 248 3.2 8.0 0.05 0.05 0.05 90 1009.2
20260503231116 9 270 4.8 8.0 0.05 0.05 0.05 89 1009.2
20260503230116 10 293 3.2 4.8 0.03 0.03 0.03 88 1009.2
20260503225116 10 270 6.4 8.0 0.03 0.03 0.03 86 1009.3
20260503224116 10 270 8.0 14.5 0.03 0.03 0.03 83 1009.3
20260503223116 11 270 9.7 16.1 0.00 0.00 0.00 76 1009.3
20260503222117 11 248 9.7 16.1 0.00 0.00 0.00 69 1009.1
20260503221136 12 248 6.4 9.7 0.00 0.00 0.00 66 1008.9
20260503220116 12 248 9.7 16.1 0.00 0.00 0.00 64 1008.7
20260503215118 12 203 12.9 25.7 0.00 0.00 0.00 63 1008.6
20260503214116 11 225 8.0 11.3 0.00 0.00 0.00 65 1008.6
20260503213116 11 248 14.5 24.1 0.00 0.00 0.00 63 1008.5
20260503212158 11 270 4.8 8.0 0.00 0.00 0.00 64 1008.5
20260503211116 11 248 9.7 17.7 0.00 0.00 0.00 63 1008.5
20260503210116 11 203 12.9 19.3 0.00 0.00 0.00 61 1008.6
20260503205116 12 225 14.5 24.1 0.00 0.00 0.00 61 1008.6
20260503204116 12 248 9.7 16.1 0.00 0.00 0.00 60 1008.7
20260503203116 12 248 9.7 14.5 0.00 0.00 0.00 59 1008.7
20260503202136 12 203 8.0 16.1 0.00 0.00 0.00 59 1008.7
20260503201116 13 203 9.7 16.1 0.00 0.00 0.00 58 1008.8
20260503200116 13 248 8.0 11.3 0.00 0.00 0.00 57 1009.1
20260503195116 13 248 9.7 16.1 0.00 0.00 0.00 56 1009.3
20260503194116 13 248 14.5 22.5 0.00 0.00 0.00 54 1009.5
20260503193116 13 248 12.9 19.3 0.00 0.00 0.00 54 1009.6
20260503192116 13 203 16.1 29.0 0.00 0.00 0.00 53 1009.7
20260503191116 13 225 11.3 16.1 0.00 0.00 0.00 52 1009.9
20260503190116 13 248 12.9 20.9 0.00 0.00 0.00 53 1010.0
20260503185116 13 203 14.5 22.5 0.00 0.00 0.00 48 1010.3
20260503184117 13 248 11.3 20.9 0.00 0.00 0.00 52 1010.4
20260503183136 13 203 14.5 22.5 0.00 0.00 0.00 50 1010.6
20260503182116 13 248 11.3 32.2 0.00 0.00 0.00 51 1010.7
20260503181136 13 248 9.7 14.5 0.00 0.00 0.00 52 1011.0
20260503180150 12 293 16.1 27.4 0.00 0.00 0.00 49 1011.0
20260503175116 13 225 11.3 22.5 0.00 0.00 0.00 49 1011.3
20260503174156 13 248 12.9 19.3 0.00 0.00 0.00 47 1011.4
20260503173116 13 270 8.0 14.5 0.00 0.00 0.00 52 1011.5
20260503172115 12 225 11.3 14.5 0.00 0.00 0.00 51 1011.7
20260503171116 12 248 8.0 11.3 0.00 0.00 0.00 50 1011.7
20260503170116 12 225 12.9 17.7 0.00 0.00 0.00 50 1011.7
20260503160116 12 270 8.0 19.3 0.00 0.00 0.00 60 1012.5
20260503150115 11 315 4.8 8.0 0.00 0.00 0.00 67 1012.8
20260503140117 10 225 8.0 9.7 0.00 0.00 0.00 70 1013.0
20260503131120 8 248 9.7 16.1 0.00 0.00 0.00 76 1013.5
20260503130155 7 248 4.8 9.7 0.00 0.00 0.00 79 1013.5
20260503120115 4 158 4.8 8.0 0.00 0.00 0.00 82 1013.8
20260503110140 0 0.0 0.0 0.00 0.00 0.00 95 1013.5
20260503100137 -1 0.0 0.0 0.00 0.00 0.00 91 1013.4
20260503090115 0 225 3.2 3.2 0.00 0.00 0.00 89 1013.7
20260503081135 -1 225 1.6 3.2 0.00 0.00 0.00 93 1013.7
20260503080117 -1 0.0 0.0 0.00 0.00 0.00 92 1013.7
20260503072137 0 225 3.2 3.2 0.00 0.00 0.00 91 1013.6
20260503071116 0 225 1.6 3.2 0.00 0.00 0.00 91 1013.6
20260503070117 0 0.0 1.6 0.00 0.00 0.00 92 1013.6
20260503060137 0 0.0 3.2 0.00 0.00 0.00 88 1013.9
20260503055116 0 0.0 0.0 0.00 0.00 0.00 88 1013.9
20260503054117 1 0.0 0.0 0.00 0.00 0.00 88 1014.1
20260503053117 1 0.0 0.0 0.00 0.00 0.00 87 1014.1
20260503052138 1 225 1.6 1.6 0.00 0.00 0.00 87 1014.1
20260503051117 1 0.0 1.6 0.00 0.00 0.00 86 1014.2
20260503050117 1 225 3.2 4.8 0.00 0.00 0.00 86 1014.3
20260503045137 2 225 1.6 3.2 0.00 0.00 0.00 84 1014.3
20260503044116 2 0.0 1.6 0.00 0.00 0.00 83 1014.3
20260503043116 2 225 1.6 1.6 0.00 0.00 0.00 82 1014.4
20260503042116 3 225 1.6 4.8 0.00 0.00 0.00 81 1014.5
20260503041116 3 225 3.2 4.8 0.00 0.00 0.00 80 1014.5
20260503040118 3 225 1.6 3.2 0.00 0.00 0.00 80 1014.5
20260503035116 3 0.0 1.6 0.00 0.00 0.00 81 1014.5
20260503034116 3 225 3.2 4.8 0.00 0.00 0.00 81 1014.6
20260503033117 3 0.0 0.0 0.00 0.00 0.00 81 1014.6
20260503032116 3 225 3.2 4.8 0.00 0.00 0.00 81 1014.7
20260503031116 3 248 1.6 3.2 0.00 0.00 0.00 81 1014.7